Weather History for KLGA - December, 2012

Change the Weather History Date:

Tuesday, December 18, 2012

  Actual Average Record
Temperature  
Mean Temperature 50 °F 37 °F  
Max Temperature 55 °F 43 °F 62 °F (2006)
Min Temperature 44 °F 31 °F 16 °F (1953)
Degree Days  
Heating Degree Days 15 28  
Month to date heating degree days 337 447  
Since 1 July heating degree days 1109 1222  
Cooling Degree Days 0 0  
Month to date cooling degree days 0 0  
Year to date cooling degree days 1511 1214  
Moisture  
Dew Point 42 °F    
Average Humidity 77    
Maximum Humidity 93    
Minimum Humidity 60    
Precipitation  
Precipitation 0.68 in 0.11 in 1.29 in (1961)
Month to date precipitation 2.13 2.16  
Year to date precipitation 34.54 43.33  
Snow  
Snow 0.00 in 0.20 in 1.30 in (1963)
Month to date snowfall 0.0 2.3  
Since 1 July snowfall 1.1 2.6  
Snow Depth 0.00 in    
Sea Level Pressure  
Sea Level Pressure 29.52 in    
Wind  
Wind Speed 13 mph (NNW)    
Max Wind Speed 28 mph    
Max Gust Speed 36 mph    
Visibility 6 miles    
Events Rain    
T = Trace of Precipitation, MM = Missing Value Source: NWS Daily Summary

Daily Weather History Graph

Daily Weather History Graph

Search for Another Location

Airport or City:

Trip Planner

Search our weather history database for the weather conditions in past years. The results will help you decide how hot, cold, wet, or windy it might be!

Date:

Astronomy

Dec. 18, 2012 Rise Set
Actual Time 7:14 AM EST 4:29 PM EST
Civil Twilight 6:43 AM EST 5:01 PM EST
Nautical Twilight 6:09 AM EST 5:35 PM EST
Astronomical Twilight 5:35 AM EST 6:08 PM EST
Moon 10:51 AM EST (12/18) 10:55 PM EST (12/18)
Length of Visible Light 10h 17m
Length of Day
9h 15m
Waxing Crescent, 34% of the Moon is Illuminated
Dec 18
Waxing Crescent
Dec 20
First Quarter
Dec 28
Full
Jan 4
Last Quarter
Jan 11
New

Hourly Weather History & Observations

Time (EST) Temp. Windchill Dew Point Humidity Pressure Visibility Wind Dir Wind Speed Gust Speed Precip Events Conditions
12:51 AM 44.1 °F 38.6 °F 42.1 °F 93% 29.59 in 1.2 mi NE 10.4 mph - 0.14 in Rain Rain
1:34 AM 44.6 °F 38.1 °F 42.8 °F 93% 29.57 in 5.0 mi NE 13.8 mph - 0.05 in Rain Light Rain
1:51 AM 44.1 °F 38.6 °F 42.1 °F 93% 29.57 in 6.0 mi ENE 10.4 mph - 0.06 in Rain Light Rain
2:51 AM 45.0 °F 38.5 °F 43.0 °F 93% 29.54 in 4.0 mi NE 13.8 mph - 0.08 in Rain Light Rain
3:12 AM 44.6 °F 38.8 °F 42.8 °F 93% 29.55 in 2.5 mi North 11.5 mph - 0.22 in Rain Heavy Rain
3:26 AM 44.6 °F 37.8 °F 42.8 °F 93% 29.52 in 2.5 mi NNE 15.0 mph - 0.35 in Rain Heavy Rain
3:40 AM 44.6 °F 37.2 °F 42.8 °F 93% 29.52 in 6.0 mi NE 17.3 mph - 0.36 in Rain Light Rain
3:46 AM 44.6 °F 36.6 °F 42.8 °F 93% 29.52 in 10.0 mi NE 19.6 mph 23.0 mph 0.36 in Rain Light Rain
3:51 AM 45.0 °F 37.1 °F 43.0 °F 93% 29.52 in 8.0 mi NE 19.6 mph - 0.37 in Rain Light Rain
4:51 AM 45.0 °F 38.2 °F 43.0 °F 93% 29.49 in 5.0 mi NE 15.0 mph - 0.03 in Rain Light Rain
5:51 AM 45.0 °F 39.3 °F 44.1 °F 97% 29.50 in 10.0 mi NE 11.5 mph - 0.00 in   Overcast
6:13 AM 46.4 °F 41.1 °F 44.6 °F 93% 29.50 in 2.0 mi NE 11.5 mph - 0.00 in Rain Light Rain
6:26 AM 46.4 °F 41.9 °F 44.6 °F 93% 29.51 in 1.5 mi NE 9.2 mph - 0.00 in Rain Light Rain
6:51 AM 46.4 °F 43.5 °F 44.6 °F 93% 29.52 in 1.5 mi NE 5.8 mph - N/A Rain Light Rain
6:59 AM 46.4 °F 45.2 °F 44.6 °F 93% 29.52 in 1.0 mi NNE 3.5 mph - 0.00 in Rain Light Rain
7:42 AM 46.4 °F 45.2 °F 44.6 °F 93% 29.51 in 1.5 mi North 3.5 mph - 0.00 in   Overcast
7:51 AM 46.0 °F 44.8 °F 45.0 °F 96% 29.52 in 1.5 mi North 3.5 mph - 0.00 in   Overcast
8:28 AM 46.4 °F 44.3 °F 44.6 °F 93% 29.51 in 2.0 mi East 4.6 mph - N/A   Overcast
8:51 AM 46.0 °F - 45.0 °F 96% 29.51 in 2.0 mi Calm Calm - N/A   Overcast
9:17 AM 48.2 °F - 44.6 °F 87% 29.52 in 2.5 mi SW 3.5 mph - N/A   Overcast
9:48 AM 48.2 °F - 44.6 °F 87% 29.52 in 3.0 mi West 10.4 mph - N/A   Overcast
9:51 AM 48.9 °F - 45.0 °F 86% 29.52 in 3.0 mi West 9.2 mph - N/A   Overcast
10:51 AM 50.0 °F - 45.0 °F 83% 29.51 in 10.0 mi WSW 8.1 mph - N/A   Overcast
11:28 AM 51.8 °F - 44.6 °F 76% 29.49 in 10.0 mi West 9.2 mph - N/A   Mostly Cloudy
11:51 AM 51.1 °F - 45.0 °F 80% 29.49 in 10.0 mi WSW 10.4 mph - N/A   Mostly Cloudy
12:51 PM 53.1 °F - 43.0 °F 69% 29.47 in 10.0 mi West 10.4 mph - N/A   Scattered Clouds
1:51 PM 54.0 °F - 43.0 °F 66% 29.46 in 10.0 mi West 15.0 mph - N/A   Scattered Clouds
2:51 PM 55.0 °F - 43.0 °F 64% 29.46 in 10.0 mi West 11.5 mph - N/A   Mostly Cloudy
3:51 PM 54.0 °F - 41.0 °F 62% 29.47 in 10.0 mi West 12.7 mph 27.6 mph N/A   Mostly Cloudy
4:51 PM 53.1 °F - 41.0 °F 64% 29.47 in 10.0 mi West 11.5 mph 21.9 mph 0.01 in   Mostly Cloudy
5:51 PM 51.1 °F - 39.9 °F 66% 29.49 in 10.0 mi West 20.7 mph 27.6 mph N/A   Mostly Cloudy
6:51 PM 48.9 °F - 37.9 °F 66% 29.52 in 10.0 mi West 17.3 mph 23.0 mph N/A   Mostly Cloudy
7:25 PM 48.2 °F - 39.2 °F 71% 29.53 in 10.0 mi WNW 15.0 mph 25.3 mph N/A   Mostly Cloudy
7:47 PM 48.2 °F - 37.4 °F 66% 29.54 in 10.0 mi WNW 18.4 mph 27.6 mph N/A   Mostly Cloudy
7:51 PM 48.9 °F - 37.9 °F 66% 29.55 in 10.0 mi West 19.6 mph 27.6 mph N/A   Mostly Cloudy
8:51 PM 46.9 °F - 36.0 °F 66% 29.57 in 10.0 mi WNW 25.3 mph 32.2 mph N/A   Mostly Cloudy
9:51 PM 46.0 °F 37.8 °F 35.1 °F 66% 29.60 in 10.0 mi NW 23.0 mph 32.2 mph N/A   Mostly Cloudy
10:51 PM 46.0 °F 38.5 °F 33.1 °F 61% 29.61 in 10.0 mi NW 19.6 mph 27.6 mph N/A   Scattered Clouds
11:51 PM 46.0 °F 38.8 °F 32.0 °F 58% 29.61 in 10.0 mi WNW 18.4 mph 26.5 mph N/A   Scattered Clouds